This is the latest recevied weather packets stored in our database for station/object HB9FHL-13. If no packets are shown the sender has not sent any weather packets the latest 10 day(s).
| Time | Temp. | Humidity | Pressure | Rain* | Wind** | Luminosity | Snow |
|---|---|---|---|---|---|---|---|
| 1788623973 | 20.56° C | - | 1026.6 hPa | 0 mm | - | - | - |
| 1788623673 | 20.56° C | - | 1024.3 hPa | 0 mm | - | - | - |
| 1788623371 | 20.56° C | - | 1027.3 hPa | 0 mm | - | - | - |
| 1788623070 | 20° C | - | 1024.1 hPa | 0 mm | - | - | - |
| 1788622770 | 20° C | - | 1029.2 hPa | 0 mm | - | - | - |
| 1788622469 | 20° C | - | 1023.4 hPa | 0 mm | - | - | - |
| 1788622169 | 19.44° C | - | 1029 hPa | 0 mm | - | - | - |
| 1788621867 | 20° C | - | 1028.9 hPa | 0 mm | - | - | - |
| 1788621566 | 20° C | - | 1027.6 hPa | 0 mm | - | - | - |
| 1788621266 | 20° C | - | 1028 hPa | 0 mm | - | - | - |
| 1788620965 | 20° C | - | 1024 hPa | 0 mm | - | - | - |
| 1788620717 | 18.89° C | - | 1024.6 hPa | 0 mm | - | - | - |
| 1788620664 | 18.89° C | - | 1024.6 hPa | 0 mm | - | - | - |
| 1788620366 | 20° C | - | 1024.6 hPa | 0 mm | - | - | - |
| 1788620064 | 20° C | - | 1027.1 hPa | 0 mm | - | - | - |
| 1788619763 | 18.89° C | - | 1026.7 hPa | 0 mm | - | - | - |
| 1788619463 | 20° C | - | 1025.2 hPa | 0 mm | - | - | - |
| 1788619160 | 18.89° C | - | 1028.5 hPa | 0 mm | - | - | - |
| 1788618892 | 18.89° C | - | 1024.3 hPa | 0 mm | - | - | - |
| 1788618860 | 18.89° C | - | 1024.3 hPa | 0 mm | - | - | - |
| 1788618594 | 18.89° C | - | 1029 hPa | 0 mm | - | - | - |
| 1788618559 | 18.89° C | - | 1029 hPa | 0 mm | - | - | - |
| 1788618259 | 19.44° C | - | 1025.7 hPa | 0 mm | - | - | - |
| 1788617958 | 20° C | - | 1024.1 hPa | 0 mm | - | - | - |
| 1788617658 | 20° C | - | 1023 hPa | 0 mm | - | - | - |
* Rain since midnight (hover to see other rain measurements)
** Current wind speed in m/s (hover to see current wind gust speed)